Weather in Vinogradovka

Russia / Khabarovsk Krai     47°26′02″N   134°29′48″E
temp.,
°C
wind,
m/s
gust,
m/s
humid.,
%
clouds,
%
prec.,
mm/h
press.,
hPa
HPBL,
m
26 february, fri
fri2601:00−23ssw23890 0.0 102620
04:00−24ssw34944 0.0 102644
07:00−25ssw349317 0.0 102761
10:00−21sw469219 0.0 1028238
13:00−16wsw35879 0.0 1028472
16:00−15wsw358745 0.0 1028479
19:00−19sw229451 0.0 103120
22:00−20ssw239325 0.0 103320
27 february, sat
sat2701:00−21ssw33910 0.0 103525
04:00−21ssw33910 0.0 103631
07:00−22s22900 0.0 103622
10:00−17s13870 0.0 1035114
13:00−10sw147744 0.0 1034386
16:00−8s257672 0.0 1029498
19:00−10se1285100 0.0 102572
22:00−8s31678100 0.0 1023617
28 february, sun
sun2801:00−7ssw81979100 0.0 1021472
04:00−5ssw91783100 0.0 1019491
07:00−3ssw81683100 0.1 1019692
10:00−2sw71296100 1.9 1018690
13:00−4w5794100 1.8 1020404
16:00−4w6984100 2.1 1021805
19:00−9wsw51079100 0.0 1024410
22:00−14wsw4882100 0.0 1026158
1 march, mon
mon101:00−17wsw3585100 0.0 102884
04:00−21sw448950 0.0 103163
07:00−23sw45900 0.0 103376
10:00−19sw47830 0.0 1034309
13:00−15w47710 0.0 1034586
16:00−13wnw46690 0.0 10331145
19:00−18wsw34810 0.0 103332
22:00−20ssw23810 0.0 103420
2 march, tue
tue201:00−22sw23830 0.0 103420
04:00−21ssw238549 0.0 103421
07:00−25nw119386 0.0 103420
10:00−20sw119156 0.0 103357
13:00−17nnw21740 0.0 1032251
16:00−16n22700 0.0 1031227
19:00−22e00710 0.0 103120
22:00−22sse12700 0.0 103220